Wind_Speed
33 36 39 39 40 41 43 44 46 52 50 48 48 43 43 46 53 61 65 68 75 82 86 87 81 61 74 75 70 70 64 64 56 55 55 56 50 47
33 35 35 35 37 39 40 42 43 46 54 50 48 42 44 44 48 55 61 64 69 78 85 91 92 73 66 75 77 74 71 64 59 58 60 52 52 50
29 31 31 30 32 34 37 40 43 44 49 51 49 45 42 45 45 50 56 61 63 71 78 86 92 85 81 70 77 77 70 70 64 57 48 47 50 51
24 26 26 26 27 28 33 35 38 41 45 49 46 46 42 41 46 45 51 55 59 63 72 79 80 92 91 78 75 71 76 71 67 68 58 56 58 59
22 24 24 25 27 29 34 35 38 39 41 44 46 43 40 38 44 45 44 50 54 57 65 74 78 90 83 88 77 71 74 75 79 70 66 63 56 51
23 25 26 26 29 29 32 35 36 38 38 39 41 40 39 35 40 45 42 42 50 51 59 68 82 75 71 79 74 82 78 81 85 74 65 65 55 49
25 28 28 28 27 28 32 32 32 34 35 37 38 36 36 35 37 40 39 38 41 46 54 57 71 86 66 63 76 70 86 81 79 70 74 70 57 52
27 30 29 28 26 28 29 33 33 34 34 34 34 34 33 33 33 35 33 34 39 42 46 53 64 83 81 64 70 75 81 68 80 89 75 72 69 62
27 29 30 32 34 34 34 32 28 27 31 36 37 31 31 30 30 31 31 33 37 39 41 49 53 70 84 82 61 64 75 72 72 70 74 68 70 67
28 29 30 30 30 32 33 31 28 27 25 26 31 32 31 31 32 33 32 34 36 37 36 42 40 56 74 90 56 63 67 82 66 58 58 68 63 62
29 29 31 31 30 28 27 30 30 32 24 23 24 28 29 32 31 31 33 33 35 34 31 36 32 42 59 82 68 59 65 75 72 77 68 65 61 60
30 33 31 32 32 30 31 32 35 35 27 29 26 26 24 28 30 31 32 33 32 31 26 31 30 30 46 64 68 53 50 69 79 80 71 73 60 58
34 33 30 31 30 30 30 31 32 33 33 32 31 29 24 21 25 27 29 29 28 28 23 28 27 26 32 56 56 63 52 47 65 67 69 73 75 66
32 31 29 28 28 29 29 28 29 30 30 30 27 26 21 20 18 19 22 24 25 23 21 27 25 24 26 33 59 65 42 47 50 57 65 69 68 66
28 28 28 27 26 25 25 26 26 26 25 25 18 21 22 23 18 20 19 19 20 20 23 24 26 26 28 31 46 57 63 40 51 61 56 61 73 66
25 24 23 24 23 23 22 22 22 22 22 23 28 30 29 21 17 18 18 18 20 23 25 23 25 27 28 29 36 54 62 49 46 52 60 62 60 65
27 23 22 21 20 20 20 20 20 19 19 20 22 22 25 22 19 17 18 19 23 23 24 25 27 28 30 30 34 42 62 54 36 37 50 58 65 64
24 22 19 18 18 18 18 17 17 17 17 17 17 20 21 22 20 23 23 21 18 19 23 26 28 32 34 32 30 33 53 58 48 39 32 51 67 63
19 18 17 16 16 16 16 17 16 16 16 16 15 15 19 22 22 20 21 24 26 24 24 25 27 31 33 32 29 28 46 57 56 44 31 40 65 73
19 17 15 15 15 15 15 16 16 16 16 16 16 15 15 17 23 28 31 32 31 33 33 30 31 30 32 32 31 28 35 37 47 51 45 31 55 68
15 14 14 15 15 15 15 15 15 16 16 16 15 16 16 16 17 19 23 27 29 30 31 30 30 31 33 33 32 27 31 34 43 48 50 38 32 56
14 13 13 14 14 14 14 15 14 14 15 16 16 16 17 18 18 19 19 21 23 26 28 28 29 32 33 33 32 30 32 33 35 56 50 42 35 40
16 14 13 14 14 14 14 15 15 14 15 15 15 16 18 19 20 22 21 22 22 23 24 27 29 32 35 35 34 30 31 31 33 46 48 54 45 31
Wind_Direction
287 286 285 285 284 282 281 280 279 276 265 263 262 257 253 250 245 244 241 236 229 225 223 220 226 231 228 226 225 225 228 231 232 236 232 232 228 231
286 285 286 287 286 286 285 283 281 279 274 271 267 263 255 250 249 245 243 240 234 227 225 221 223 224 224 226 230 231 230 230 231 231 236 225 229 230
286 286 289 291 290 290 289 286 283 280 277 271 271 268 261 253 248 247 244 242 239 233 228 224 222 225 227 229 229 229 229 230 229 228 225 227 233 227
285 285 287 288 291 297 296 292 286 281 278 273 271 267 265 257 252 249 244 244 243 237 232 226 224 223 224 231 223 224 226 227 228 224 226 230 228 226
280 280 282 281 288 295 294 291 293 288 280 273 272 268 264 259 254 253 248 241 243 241 236 229 222 224 227 230 232 230 225 230 232 231 231 223 221 226
276 276 278 282 290 295 300 298 288 286 282 275 271 268 267 261 257 255 249 246 240 240 239 234 223 219 225 226 228 231 227 234 233 230 226 221 222 222
271 273 275 274 288 296 295 303 297 286 283 279 274 271 266 264 258 259 258 247 241 241 237 239 232 224 219 232 220 224 218 221 223 233 230 223 228 221
284 287 285 280 284 293 301 298 304 296 288 282 277 273 268 267 262 263 260 252 244 236 240 237 237 228 219 225 229 229 237 227 227 228 226 225 229 225
286 289 287 284 281 288 286 287 288 291 288 283 279 274 269 264 263 258 254 251 245 241 241 240 237 234 231 224 222 223 228 227 221 221 217 226 219 217
286 288 291 292 291 292 291 282 286 285 292 289 282 279 275 268 262 258 254 250 245 239 245 246 240 238 231 228 225 219 226 222 222 217 220 223 219 222
279 287 288 290 293 293 285 279 283 281 291 290 288 279 268 266 266 261 254 252 246 240 241 250 241 244 235 225 227 222 230 231 223 222 229 227 225 236
283 286 290 290 290 289 285 282 272 275 282 279 284 290 285 268 257 252 255 250 247 241 233 248 244 251 239 228 231 218 223 230 233 233 229 225 227 228
283 291 293 288 286 283 282 282 284 280 272 276 280 285 281 276 270 260 255 250 247 240 228 245 243 244 239 223 232 217 227 222 228 232 222 222 226 229
289 292 294 291 286 283 283 284 284 283 277 266 272 276 283 285 277 263 254 250 243 238 226 237 236 239 228 221 225 232 218 229 216 221 227 225 221 221
291 292 290 291 288 284 284 284 285 287 279 261 267 263 269 279 281 262 249 241 236 230 224 235 239 237 233 229 220 222 226 215 221 233 220 216 221 214
293 291 289 285 287 286 285 285 286 289 282 272 255 256 268 267 275 263 250 233 228 223 221 223 236 237 238 233 224 217 223 216 213 223 229 208 213 213
298 299 289 284 286 286 284 284 285 288 288 281 271 265 264 256 262 257 254 243 244 240 235 237 237 237 242 241 231 218 220 211 197 208 214 230 230 213
301 297 291 287 286 287 285 284 285 286 289 291 284 270 263 254 253 262 256 265 263 251 245 244 245 244 246 243 245 227 225 229 218 214 215 207 214 222
303 298 293 290 289 290 290 288 288 288 289 290 292 284 268 256 246 240 250 258 254 253 257 258 250 248 250 247 245 236 227 233 233 220 216 216 214 226
309 304 298 295 294 294 293 290 290 291 291 291 291 291 285 272 259 255 254 254 246 244 255 257 255 250 252 251 246 241 235 229 228 223 225 227 216 209
312 305 303 301 300 300 300 300 296 294 294 293 292 290 287 284 277 269 262 259 255 251 252 250 250 254 253 252 250 239 235 234 226 232 227 220 225 210
327 318 312 307 304 302 303 304 304 301 296 294 292 290 286 283 281 278 274 270 264 258 252 250 246 248 250 251 245 237 233 235 221 229 230 220 233 219
345 333 321 311 307 305 304 303 305 309 308 304 301 296 292 288 283 279 277 274 272 267 258 251 246 245 246 249 251 241 236 234 226 225 227 226 229 217
Height
2945 2944 2943 2942 2940 2938 2936 2935 2931 2928 2929 2933 2934 2938 2937 2937 2939 2940 2945 2951 2958 2968 2979 2990 2999 3006 3016 3024 3029 3037 3046 3055 3063 3065 3075 3083 3090 3097
2937 2935 2933 2932 2930 2928 2926 2924 2922 2919 2912 2917 2919 2922 2923 2925 2926 2926 2929 2934 2941 2947 2957 2968 2978 2988 2997 3006 3016 3025 3033 3042 3049 3056 3066 3069 3078 3085
2928 2926 2925 2924 2921 2920 2917 2914 2911 2909 2903 2903 2905 2907 2910 2911 2913 2913 2916 2920 2925 2931 2937 2947 2959 2971 2982 2992 3001 3009 3019 3027 3036 3044 3050 3057 3065 3073
2920 2918 2918 2917 2914 2912 2908 2905 2901 2899 2894 2890 2892 2893 2896 2898 2898 2900 2903 2906 2909 2916 2921 2930 2939 2951 2962 2972 2983 2989 3000 3010 3020 3030 3039 3046 3053 3064
2912 2911 2910 2908 2906 2903 2899 2894 2891 2888 2884 2880 2878 2880 2883 2885 2885 2886 2889 2893 2896 2900 2905 2913 2924 2935 2945 2953 2961 2968 2984 2994 3004 3013 3022 3032 3039 3047
2904 2903 2901 2899 2897 2894 2890 2885 2881 2877 2874 2870 2867 2868 2870 2874 2872 2872 2876 2879 2882 2886 2892 2899 2908 2917 2926 2938 2947 2957 2970 2981 2991 2998 3005 3015 3021 3032
2896 2894 2892 2890 2889 2885 2881 2878 2872 2868 2864 2861 2858 2858 2859 2861 2862 2861 2862 2866 2869 2874 2879 2883 2891 2901 2911 2922 2930 2941 2952 2960 2972 2982 2994 3003 3009 3021
2885 2884 2882 2881 2880 2877 2874 2869 2864 2859 2855 2853 2850 2849 2850 2850 2851 2851 2852 2854 2858 2861 2864 2871 2876 2887 2896 2907 2916 2924 2934 2945 2954 2966 2978 2989 2999 3008
2878 2875 2873 2872 2870 2868 2866 2863 2859 2855 2850 2845 2840 2840 2839 2841 2841 2840 2842 2843 2846 2853 2853 2857 2866 2873 2882 2892 2903 2911 2919 2928 2937 2947 2956 2972 2982 2995
2870 2867 2864 2862 2861 2858 2855 2853 2850 2848 2844 2840 2834 2832 2830 2830 2830 2831 2832 2833 2835 2841 2843 2846 2856 2859 2868 2876 2888 2896 2904 2915 2920 2931 2945 2952 2966 2978
2861 2859 2856 2854 2852 2850 2847 2843 2838 2837 2838 2834 2829 2825 2823 2821 2821 2822 2822 2824 2826 2832 2835 2835 2847 2845 2852 2864 2874 2882 2890 2898 2906 2919 2934 2946 2954 2963
2853 2850 2849 2845 2842 2840 2837 2833 2829 2827 2825 2825 2823 2820 2816 2813 2814 2814 2814 2815 2818 2822 2829 2828 2834 2834 2841 2851 2863 2871 2879 2886 2894 2908 2921 2933 2945 2953
2843 2841 2839 2836 2833 2830 2828 2824 2821 2818 2816 2814 2814 2813 2810 2807 2806 2806 2807 2808 2811 2814 2821 2820 2824 2827 2828 2838 2847 2856 2870 2874 2882 2894 2906 2918 2930 2940
2835 2832 2830 2826 2823 2821 2818 2816 2813 2809 2806 2806 2806 2804 2804 2802 2801 2800 2800 2801 2803 2807 2811 2812 2816 2819 2820 2824 2836 2843 2852 2861 2868 2879 2892 2903 2913 2923
2828 2824 2821 2818 2815 2813 2810 2808 2805 2802 2799 2798 2797 2796 2797 2797 2796 2794 2794 2795 2797 2801 2804 2806 2809 2811 2813 2816 2822 2833 2844 2852 2855 2865 2875 2886 2893 2900
2819 2816 2813 2810 2808 2805 2803 2801 2798 2795 2792 2791 2791 2790 2790 2790 2790 2790 2789 2790 2791 2794 2796 2798 2802 2804 2806 2810 2811 2820 2832 2840 2845 2851 2861 2865 2873 2887
2810 2808 2806 2803 2801 2799 2797 2794 2792 2790 2787 2784 2783 2783 2782 2783 2783 2785 2785 2786 2786 2788 2791 2793 2796 2797 2799 2801 2803 2807 2819 2827 2831 2838 2846 2853 2864 2875
2803 2800 2799 2797 2795 2792 2790 2788 2786 2784 2782 2779 2777 2776 2776 2777 2777 2779 2780 2781 2781 2783 2784 2786 2788 2790 2790 2794 2797 2798 2805 2812 2819 2829 2833 2842 2853 2863
2797 2795 2792 2791 2789 2787 2785 2783 2781 2779 2777 2775 2773 2771 2770 2771 2771 2772 2773 2774 2775 2776 2777 2779 2780 2781 2781 2783 2785 2785 2792 2800 2808 2817 2823 2830 2841 2851
2792 2789 2788 2785 2784 2782 2780 2778 2776 2774 2772 2770 2768 2767 2765 2764 2765 2765 2765 2766 2768 2769 2770 2772 2771 2773 2774 2776 2778 2781 2784 2792 2797 2807 2816 2822 2830 2841
2788 2786 2783 2781 2779 2777 2775 2773 2771 2769 2767 2765 2763 2762 2760 2759 2758 2757 2757 2757 2758 2759 2760 2763 2765 2765 2765 2768 2770 2773 2775 2778 2786 2798 2808 2815 2823 2828
2785 2783 2780 2778 2776 2773 2771 2769 2766 2764 2762 2760 2758 2756 2755 2753 2752 2751 2750 2750 2749 2750 2751 2753 2756 2756 2757 2758 2762 2765 2772 2774 2776 2787 2798 2804 2814 2817
2784 2781 2778 2775 2772 2769 2767 2764 2762 2760 2757 2755 2753 2751 2749 2747 2746 2744 2743 2743 2742 2742 2743 2743 2745 2747 2748 2749 2753 2756 2761 2768 2771 2776 2789 2797 2805 2810